Weather in Saratov

Russia / Saratov Oblast     51°31′59″N   46°02′02″E
temp.,
°C
wind,
m/s
gust,
m/s
humid.,
%
clouds,
%
prec.,
mm/h
press.,
hPa
HPBL,
m
13 june, sun
sun1301:00+18s33808 0.3 101120
04:00+17sw22825 0.4 101116
07:00+17ssw22830 0.0 101248
10:00+19s34740 0.0 1012187
13:00+20s81172100 1.1 1013430
16:00+20ssw4676100 1.1 1012217
19:00+20sse337989 0.3 101262
22:00+19ese1282100 0.3 101312
14 june, mon
mon1401:00+18sse1285100 0.6 101312
04:00+17se2286100 0.6 101414
07:00+17nne1185100 0.0 101426
10:00+17sse2388100 0.5 101675
13:00+19nw4583100 0.3 101586
16:00+17nnw4692100 1.7 101683
19:00+18n4686100 0.3 101497
22:00+17n4495100 5.1 101442
15 june, tue
tue1501:00+17n359794 3.5 101399
04:00+16nne2399100 5.6 101356
07:00+17ne3398100 0.6 101284
10:00+18ne239369 0.6 1012121
13:00+21ese35785 0.3 1010370
16:00+23se696449 0.4 1009533
19:00+21ese46714 0.0 1008117
22:00+19e337998 0.0 100828
16 june, wed
wed1601:00+18n22823 0.0 100811
04:00+17wnw228665 0.0 100716
07:00+17wnw34905 0.0 100880
10:00+20w55785 0.0 1008202
13:00+22wsw67709 0.0 1009366
16:00+21wsw687554 0.1 1009313
19:00+22w57765 0.0 1010276
22:00+19w5785100 0.0 1012134
17 june, thu
thu1701:00+18wnw6986100 0.0 1012121
04:00+18nnw5886100 0.0 1013125
07:00+17n5885100 0.0 1015168
10:00+19n6970100 0.0 1016234
13:00+20nne68600 0.0 1017367
16:00+21nne68530 0.0 1018420
19:00+20ne69625 0.0 1019250
22:00+17nne46730 0.0 1021106